Regional Weather Roundup
Issued by NWS State College, PA

Home | Current Version | Previous Version | Text Only | Print | Product List | Glossary On
Versions: 1 2 3 4 5 6 7 8 9 10 11 12 13 14 15 16 17 18 19 20 21 22 23 24 25 26 27 28 29 30 31 32 33 34 35 36 37 38 39 40 41 42 43 44 45 46 47 48 49 50
000
ASUS41 KCTP 050303
RWRCTP

REGIONAL WEATHER ROUNDUP
NATIONAL WEATHER SERVICE STATE COLLEGE PA
1100 PM EDT FRI SEP 04 2015

Note: "fair" indicates few or no clouds below 12,000 feet with no
significant weather and/or obstructions to visibility.

* = STATION THAT DOES NOT REPORT PRECIPITATION /E.G. RAIN...SNOW...ETC/
    THUNDER OR FOG.

PAZ002>004-007>009-013>016-020>023-029>032-050400-
WESTERN PENNSYLVANIA

CITY           SKY/WX    TMP DP  RH WIND       PRES   REMARKS
ERIE           PTCLDY    74  62  66 SE9       30.08F
MEADVILLE      MOCLDY    69  63  81 E3        30.14S
FRANKLIN*      MOCLDY    64  63  94 CALM      30.17S
NEW CASTLE     FAIR      69  68  97 CALM      30.14R
BEAVER COUNTY  NOT AVBL
BUTLER*        PTCLDY    66  64  94 NE3       30.15S
PITTSBURGH INT PTCLDY    74  64  71 E3        30.12S
PITTSBURGH     PTCLDY    71  62  73 E5        30.12S
INDIANA*       MOCLDY    68  66  94 E6        30.18F
LATROBE        NOT AVBL
WASHINGTON CO* CLEAR     66  63  88 CALM      30.13S
$$

PAZ004>006-010>012-017>019-024>028-033>037-041-042-045-046-049>053-050400-
CENTRAL PENNSYLVANIA

CITY           SKY/WX    TMP DP  RH WIND       PRES   REMARKS
BRADFORD       MOCLDY    64  61  90 CALM      30.20F
DUBOIS         MOCLDY    72  65  78 N3        30.17F
CLEARFIELD     MOCLDY    69  65  86 CALM      30.18R
JOHNSTOWN      PTCLDY    66  62  87 CALM      30.20S
ALTOONA        CLOUDY    71  68  90 NE6       30.18R FOG
STATE COLLEGE  PTCLDY    75  67  76 SE7       30.17S
WILLIAMSPORT   MOCLDY    73  68  84 E7        30.14F
SELINSGROVE    MOCLDY    75  69  81 SE3       30.17R
FT INDIANTOWN  MOCLDY    74  67  80 E3        30.18R
CAPITAL CITY   PTCLDY    77  67  71 SE9       30.16R
HARRISBURG     MOCLDY    77  68  73 SE10      30.16R
YORK           PTCLDY    73  68  84 SE3       30.17R
$$

PAZ038>040-043-044-047-048-054-055-060>062-067>071-050400-
EASTERN PENNSYLVANIA

CITY           SKY/WX    TMP DP  RH WIND       PRES   REMARKS
SCRANTON       PTCLDY    73  66  78 VRB5      30.20R
MOUNT POCONO   PTCLDY    67  64  90 SE6       30.25R
ALLENTOWN      PTCLDY    74  65  73 E8        30.20R
QUAKERTOWN*    PTCLDY    72  64  78 E5        30.21R
READING        CLOUDY    75  66  73 SE5       30.18R
LANCASTER      PTCLDY    71  67  87 E5        30.18R
COATESVILLE    MOCLDY    72  68  88 E9        30.20R
POTTSTOWN      CLEAR     71  64  78 CALM      30.21R
BLUE BELL      MOCLDY    73  68  83 E7        30.19R
DOYLESTOWN     CLOUDY    69  64  84 NE3       30.20R
WILLOW GROVE   NOT AVBL
NORTH PHILA    CLOUDY    75  64  68 NE8       30.20R
PHILADELPHIA   CLOUDY    76  66  71 E13       30.18R
$$


USA.gov is the U.S. government's official web portal to all federal, state and local government web resources and services.